Showing default

PAKTES 1A, 43529

Orbit data source: Space-Track

PAKTES 1A, 43529 is a payload satellite owned by SUPARCO (PK) in SSO that was launched on Mon, 09 Jul 2018 UTC via a CHANG ZHENG 2C launch vehicle from the Jiuquan Satellite Launch Center, China (JSC). Payload-class satellites include a variety of spacecraft equipped with specific instruments for various scientific and technological missions. These include communications satellites like Starlink; space stations such as the ISS; scientific satellites like the Hubble; Earth observation satellites from companies like Planet Labs, Umbra, and HawkEye 360; GPS; miniature CubeSats for education and research; and military/defense satellites.

Loading next visibility...
Identifier
43529, 2018-056A
Orbit
SSO
Country
Flag of PKPK / PAKI
Related business
Manufacturer
SUPARCO
Mission
Operational Civil Imaging
Bus & Motor
PAKTES, Unknown motor
Mass
285 kg wet, 285 kg dry
Launch date (UTC)
2018-07-09 (8 years ago)
Launch vehicle
CHANG ZHENG 2C
Launch site
Jiuquan Satellite Launch Center, China (JSC)
Object type
Payload
Rocket body
Debris
Shape & HBR
Box + 1 Pan, 2.0 m
Radar Cross Section
5.935 m², Large (>1 m²)

Expand to show TLE details & history
Last TLE update: 23 hours ago

TLE from 23 hours ago
0 PAKTES 1A
1 43529U 18056A   26172.47676644  .00001069  00000-0  92962-4 0  9993
2 43529  98.1304 329.1469 0021802  92.9585 267.4132 14.99116197432568
Epoch: 2026-06-21T11:26Z
TLE epoch observation values (Epoch: 2026-06-21T11:26:32.620Z)
Latitude
-0.00003°
Longitude
-112.1655°
Altitude
573.383 km
Speed
7.574 km/s
True Right ascension
21h 56m 35s
True Declination
0° 00' 00"
Sunlit
Object was in full shadow at epoch
Visualization orbit readout
Latitude
Unknown
Longitude
Unknown
Altitude
Unknown
Speed
Unknown
Apparent Right ascension
Unknown
Apparent Declination
Unknown
Sunlit
N/A
Visualization observer readout
Local Sidereal Time
21:36:08
Azimuth
Unknown
Elevation
Unknown
Doppler factor
Unknown
Orbital elements
Apogee altitude
581.793 km
Perigee altitude
551.511 km
Semi-major axis
6,944.789 km
Eccentricity
0.00218
Inclination
98.1304°
RAAN
329.1469°
Arg. of periapsis
92.9585°
True anomaly
267.16365°
Mean anomaly
267.4132°
Eccentric anomaly
267.28842°
Mean motion
3.7502 °/min
Orbital period
95.99 mins
BSTAR
0.000092962
Loading maneuver chart data...
Computing Atmospheric mass density...
Loading historical data...
Loading historical data...
Loading historical data...
Loading historical data...
Loading historical data...
Loading historical data...
Loading historical data...

Documentation

Showing up to 5 results
|